Volver al catálogo

CZ-4 DEB

ActivoSSO
NORAD 26196·DEBRIS·🇨🇳 China

Lanzado Oct 14, 1999 desde Taiyuan Satellite Launch Center

Loading…

Próximos Pases (próximas 24 horas)

TLE

ActualizadoSource: Space-Track

Época: Sep 14, 2026, 13:45 UTC

1 26196U 99057CJ  26257.57355720  .00000337  00000-0  24422-3 0  9990
2 26196  98.8814 148.5334 0335941 316.6659 159.1123 13.78929961329341

Sigue CZ-4 DEB en tiempo real con AllMySat

Download on the App Store